This demonstration page uses our WeatherBlox Daily Observations layout. Learn more.

Left ArrowRight Arrow

38.89511, -77.03637

Hourly Observations for September 24, 2021

Temp ( °F °C ) Dew Point ( °F °C ) Humidity (%) Winds ( mph kmh ) Pressure ( in mb ) Visibility ( mi km ) Precip ( " mm )
12:52 am 00:52 Mostly Cloudy 62 16.7 50 10 65 65 NNW 5 7 30.02 1017 10 16 N/A
1:52 am 01:52 Mostly Clear 60 15.6 49 9.4 67 67 NNW 6 9 30.02 1017 10 16 N/A
2:52 am 02:52 Mostly Clear 60 15.6 50 10 70 70 N N/A 30.03 1017 10 16 N/A
3:52 am 03:52 Mostly Clear 57 13.9 49 9.4 74 74 NNW 7 11 30.04 1017 10 16 N/A
4:52 am 04:52 Mostly Clear 57 13.9 49 9.4 74 74 NW 5 7 30.06 1018 10 16 N/A
5:52 am 05:52 Mostly Clear 56 13.3 50 10 81 81 NNW 6 9 30.07 1018 10 16 N/A
6:52 am 06:52 Mostly Clear 56 13.3 48 8.9 75 75 NNW 3 6 30.09 1019 10 16 N/A
7:52 am 07:52 Sunny 59 15 49 9.4 69 69 NW 5 7 30.10 1019 10 16 N/A
8:52 am 08:52 Sunny 62 16.7 51 10.6 67 67 NE 3 6 30.11 1020 10 16 N/A
9:52 am 09:52 Mostly Sunny 67 19.4 51 10.6 57 57 NNE 5 7 30.12 1020 10 16 N/A
10:52 am 10:52 Mostly Sunny 70 21.1 51 10.6 51 51 NNW 8 13 30.13 1020 10 16 N/A
11:52 am 11:52 Mostly Sunny 71 21.7 46 7.8 41 41 NNW 14 22 30.12 1020 10 16 N/A
12:52 pm 12:52 Mostly Sunny 73 22.8 46 7.8 38 38 NW 15 24 30.11 1020 10 16 N/A
1:52 pm 13:52 Mostly Sunny 73 22.8 44 6.7 35 35 NNW 10 17 30.09 1019 10 16 N/A
2:52 pm 14:52 Mostly Sunny 74 23.3 46 7.8 37 37 N 10 17 30.07 1018 10 16 N/A
3:52 pm 15:52 Mostly Sunny 75 23.9 46 7.8 36 36 N 10 17 30.06 1018 10 16 N/A
4:52 pm 16:52 Sunny 74 23.3 46 7.8 37 37 NNW 8 13 30.07 1018 10 16 N/A
5:52 pm 17:52 Sunny 72 22.2 47 8.3 41 41 N 9 15 30.07 1018 10 16 N/A
6:52 pm 18:52 Sunny 69 20.6 46 7.8 44 44 NNW 9 15 30.07 1018 10 16 N/A
7:52 pm 19:52 Clear 70 21.1 45 7.2 41 41 NNW 3 6 30.08 1019 10 16 N/A
8:52 pm 20:52 Clear 68 20 47 8.3 47 47 N N/A 30.08 1019 10 16 N/A
9:52 pm 21:52 Clear 64 17.8 51 10.6 63 63 WSW 3 6 30.09 1019 10 16 N/A
10:52 pm 22:52 Clear 63 17.2 54 12.2 73 73 N N/A 30.09 1019 10 16 N/A
11:52 pm 23:52 Clear 62 16.7 53 11.7 73 73 N N/A 30.09 1019 10 16 N/A

Powered by AerisWeather